LCKY02 KNDZ-KDNZ

Flight info

Callsign LCKY02
Flight time N/A
Altitude 500
Route KNDZ ORIOLE BEACH KNDZ
Aircraft B06/L-VGD/C

Departure

Time 2026-05-06 02:26
Airport Whiting Field Naval Air Station South Airport (KNDZ)

Arrival

Time N/A
Airport KDNZ
Time Latitude Longitude Altitude Speed Heading
2026-05-06 01:55 30.70073 -87.01663 175 ft 0 kts
2026-05-06 02:12 30.70079 -87.01665 179 ft 5 kts 291°
2026-05-06 02:12 30.70082 -87.01756 182 ft 22 kts 253°
2026-05-06 02:12 30.70085 -87.01939 213 ft 17 kts 230°
2026-05-06 02:13 30.70018 -87.01990 213 ft 14 kts 156°
2026-05-06 02:13 30.69906 -87.01890 203 ft 29 kts 134°
2026-05-06 02:13 30.69695 -87.01670 239 ft 57 kts 143°
2026-05-06 02:13 30.69341 -87.01296 288 ft 73 kts 139°
2026-05-06 02:14 30.68954 -87.00858 394 ft 82 kts 134°
2026-05-06 02:14 30.68593 -87.00375 607 ft 77 kts 135°
2026-05-06 02:14 30.68088 -87.00036 553 ft 95 kts 155°
2026-05-06 02:14 30.67427 -86.99749 491 ft 103 kts 158°
2026-05-06 02:15 30.66722 -86.99491 364 ft 106 kts 163°
2026-05-06 02:15 30.66006 -86.99336 372 ft 103 kts 166°
2026-05-06 02:15 30.65280 -86.99202 428 ft 107 kts 163°
2026-05-06 02:15 30.64557 -86.98992 416 ft 111 kts 163°
2026-05-06 02:16 30.64187 -86.98821 623 ft 61 kts 158°
2026-05-06 02:16 30.63727 -86.98701 458 ft 74 kts 165°
2026-05-06 02:16 30.63202 -86.98574 400 ft 79 kts 164°
2026-05-06 02:16 30.62654 -86.98493 401 ft 81 kts 167°
2026-05-06 02:17 30.62085 -86.98462 519 ft 85 kts 173°
2026-05-06 02:17 30.61435 -86.98536 486 ft 101 kts 177°
2026-05-06 02:17 30.60755 -86.98427 407 ft 94 kts 162°
2026-05-06 02:17 30.60119 -86.98217 400 ft 99 kts 159°
2026-05-06 02:18 30.59414 -86.98061 317 ft 108 kts 164°
2026-05-06 02:18 30.58687 -86.97961 232 ft 108 kts 171°
2026-05-06 02:18 30.57944 -86.97911 242 ft 106 kts 170°
2026-05-06 02:18 30.57209 -86.97892 245 ft 103 kts 173°
2026-05-06 02:19 30.56479 -86.97880 219 ft 107 kts 174°
2026-05-06 02:19 30.55711 -86.97934 201 ft 113 kts 175°
2026-05-06 02:19 30.54947 -86.98120 217 ft 115 kts 191°
2026-05-06 02:19 30.54203 -86.98482 255 ft 117 kts 198°
2026-05-06 02:20 30.52715 -86.99330 376 ft 110 kts 197°
2026-05-06 02:20 30.51986 -86.99752 240 ft 120 kts 201°
2026-05-06 02:20 30.51285 -87.00182 261 ft 112 kts 193°
2026-05-06 02:21 30.50514 -87.00399 230 ft 114 kts 184°
2026-05-06 02:21 30.49740 -87.00623 231 ft 116 kts 191°
2026-05-06 02:21 30.48954 -87.00850 220 ft 114 kts 181°
2026-05-06 02:21 30.48204 -87.00924 245 ft 109 kts 176°
2026-05-06 02:22 30.47436 -87.00992 313 ft 111 kts 181°
2026-05-06 02:22 30.46638 -87.01092 198 ft 119 kts 181°
2026-05-06 02:22 30.45852 -87.01189 218 ft 116 kts 176°
2026-05-06 02:22 30.45059 -87.01274 294 ft 109 kts 179°
2026-05-06 02:23 30.44267 -87.01425 271 ft 124 kts 188°
2026-05-06 02:23 30.43451 -87.01714 350 ft 114 kts 198°
2026-05-06 02:23 30.42705 -87.02045 267 ft 122 kts 192°
2026-05-06 02:23 30.41924 -87.02248 280 ft 101 kts 177°
2026-05-06 02:24 30.41220 -87.02108 301 ft 107 kts 160°
2026-05-06 02:24 30.40582 -87.01649 305 ft 107 kts 137°
2026-05-06 02:24 30.40099 -87.01039 381 ft 101 kts 127°
2026-05-06 02:24 30.39798 -87.00300 451 ft 103 kts 107°
2026-05-06 02:25 30.39817 -86.99438 458 ft 112 kts 82°
2026-05-06 02:25 30.40107 -86.98577 534 ft 121 kts 68°
2026-05-06 02:25 30.40796 -86.97961 545 ft 133 kts 16°
2026-05-06 02:25 30.41736 -86.98035 644 ft 139 kts
2026-05-06 02:26 30.42681 -86.97985 1036 ft 131 kts
2026-05-06 02:26 30.43532 -86.97745 1608 ft 131 kts 17°
2026-05-06 02:26 30.44432 -86.97431 2154 ft 134 kts 17°
2026-05-06 02:26 30.45406 -86.97096 2098 ft 147 kts
2026-05-06 02:27 30.46316 -86.96842 2616 ft 129 kts
2026-05-06 02:27 30.47167 -86.96486 2913 ft 129 kts 12°
2026-05-06 02:27 30.48025 -86.96086 2935 ft 130 kts
2026-05-06 02:27 30.48903 -86.95795 2943 ft 133 kts
2026-05-06 02:28 30.49815 -86.95684 2874 ft 136 kts 347°
2026-05-06 02:28 30.50719 -86.95925 2913 ft 130 kts 333°
2026-05-06 02:28 30.51586 -86.96261 2884 ft 132 kts 332°
2026-05-06 02:28 30.52478 -86.96555 2812 ft 133 kts 335°
2026-05-06 02:29 30.53291 -86.96831 3091 ft 121 kts 332°
2026-05-06 02:29 30.54151 -86.97166 2980 ft 138 kts 333°
2026-05-06 02:29 30.55022 -86.97539 2865 ft 134 kts 328°
2026-05-06 02:29 30.55831 -86.97919 2946 ft 120 kts 328°
2026-05-06 02:30 30.56608 -86.98261 2949 ft 122 kts 328°
2026-05-06 02:30 30.57340 -86.98668 3042 ft 115 kts 320°
2026-05-06 02:30 30.58034 -86.99152 3043 ft 116 kts 314°
2026-05-06 02:30 30.58727 -86.99670 3015 ft 123 kts 317°
2026-05-06 02:31 30.59409 -87.00247 3057 ft 121 kts 311°
2026-05-06 02:31 30.60118 -87.00814 2977 ft 124 kts 321°
2026-05-06 02:31 30.60945 -87.01067 2927 ft 126 kts 348°
2026-05-06 02:31 30.61795 -87.00981 2938 ft 123 kts 360°
2026-05-06 02:32 30.62643 -87.00793 2873 ft 126 kts
2026-05-06 02:32 30.63492 -87.00584 2884 ft 123 kts
2026-05-06 02:32 30.64327 -87.00329 2846 ft 124 kts
2026-05-06 02:32 30.65121 -87.00013 2839 ft 124 kts
2026-05-06 02:33 30.65943 -86.99598 2556 ft 134 kts 15°
2026-05-06 02:33 30.66529 -86.99282 2315 ft 139 kts 15°
2026-05-06 02:33 30.68460 -86.98947 1768 ft 121 kts 335°
2026-05-06 02:34 30.69188 -86.99312 1484 ft 106 kts 310°
2026-05-06 02:34 30.69628 -86.99912 1150 ft 94 kts 283°
2026-05-06 02:34 30.69864 -87.00559 914 ft 84 kts 271°
2026-05-06 02:34 30.70139 -87.01147 892 ft 87 kts 295°
2026-05-06 02:35 30.70445 -87.01434 909 ft 83 kts 308°
2026-05-06 02:35 30.70778 -87.01785 662 ft 60 kts 243°
2026-05-06 02:35 30.70624 -87.02211 620 ft 54 kts 210°
2026-05-06 02:35 30.70304 -87.02352 339 ft 58 kts 124°
2026-05-06 02:36 30.70148 -87.02028 803 ft 32 kts 79°
2026-05-06 02:36 30.70265 -87.01944 729 ft 27 kts 320°
2026-05-06 02:36 30.70546 -87.02183 874 ft 64 kts 283°
2026-05-06 02:36 30.70353 -87.02402 689 ft 63 kts 136°
2026-05-06 02:37 30.70078 -87.02044 184 ft 33 kts 149°
2026-05-06 02:37 30.70022 -87.02008 167 ft 0 kts 139°
2026-05-06 02:37 30.69957 -87.01945 202 ft 41 kts 124°
2026-05-06 02:37 30.69664 -87.01640 366 ft 71 kts 134°
2026-05-06 02:38 30.69233 -87.01212 717 ft 81 kts 138°
2026-05-06 02:38 30.69106 -87.00645 936 ft 94 kts 35°
2026-05-06 02:38 30.69737 -87.00833 556 ft 109 kts 316°
2026-05-06 02:38 30.70047 -87.01553 232 ft 77 kts 257°
2026-05-06 02:39 30.70041 -87.01749 192 ft 5 kts 275°
2026-05-06 02:39 30.70113 -87.01846 213 ft 25 kts 343°
2026-05-06 02:39 30.70230 -87.01849 199 ft 9 kts 357°
2026-05-06 02:39 30.70268 -87.01854 178 ft 1 kts
2026-05-06 02:40 30.70267 -87.01854 178 ft 0 kts